sat.trackr.live / text

‹ back to catalog

STARLINK-31425

NORAD 59253 · 2024-049Y

PAYLOAD ACTIVE UNKNOWN

§ Identity

Operator
Country
US
Launch date
2024-03-16
Launch site
AFETR
Launch vehicle
Mass (kg)
RCS (m²)

Purposes: comms

External: N2YO · Heavens-Above · Gunter

§ Orbital elements

Epoch: 2026-09-20T21:41:07.812096Z

Period
94.27 min
Inclination
43.0014°
Eccentricity
0.0001057
Mean motion
15.27574912 rev/d
Perigee alt
482.3 km
Apogee alt
483.8 km
Semi-major
6,861.2 km
B*
6.0971e-7
RAAN
120.8857°
Arg perigee
270.8688°
Mean anomaly
89.2043°
Rev number
14,225

§ Raw data

STARLINK-314251 59253U 24049Y   26263.90356264 -.00000245  00000+0  60971-6 0  99972 59253  43.0014 120.8857 0001057 270.8688  89.2043 15.27574912142254

JSON: /api/v1/satellites/59253 · /tle

For live sub-satellite position, see the globe view (requires WebGL).

§ Visibility from observer

Set your observer location to see the next 7 days of passes ≥ 10°. The values pass through the URL so the page stays shareable.

No JS? Fill the form by hand. The geolocation button needs JavaScript.